FW6223 Weather Reports


time (UTC)temp
C
wind
direction
speed
KPH
gust
KPH
rain 1hr
cm
rain 24hr
cm
rain mn
cm
humidity
%
barometer
mb
20260507051517 8 0.0 9.7 0.00 0.00 0.00 57 1014.0
20260507051117 8 0.0 4.8 0.00 0.00 0.00 56 1014.0
20260507050516 8 0.0 4.8 0.00 0.00 0.00 56 1014.1
20260507050017 8 0.0 8.0 0.00 0.00 0.00 56 1014.0
20260507045547 8 0.0 8.0 0.00 0.00 0.00 58 1014.1
20260507045017 8 0.0 3.2 0.00 0.00 0.00 58 1014.1
20260507044517 7 0.0 8.0 0.00 0.00 0.00 59 1014.1
20260507044017 7 0.0 8.0 0.00 0.00 0.00 60 1014.1
20260507043516 7 0.0 0.0 0.00 0.00 0.00 64 1014.1
20260507043016 7 0.0 0.0 0.00 0.00 0.00 64 1014.1
20260507042517 7 0.0 0.0 0.00 0.00 0.00 64 1014.1
20260507042017 7 0.0 0.0 0.00 0.00 0.00 65 1014.0
20260507041516 7 0.0 0.0 0.00 0.00 0.00 64 1014.0
20260507041047 7 0.0 0.0 0.00 0.00 0.00 63 1014.1
20260507040516 7 0.0 0.0 0.00 0.00 0.00 63 1014.1
20260507040047 7 0.0 0.0 0.00 0.00 0.00 64 1014.0
20260507035517 7 0.0 0.0 0.00 0.00 0.00 62 1014.1
20260507035047 7 0.0 0.0 0.00 0.00 0.00 60 1014.0
20260507034517 7 0.0 0.0 0.00 0.00 0.00 61 1014.1
20260507034017 8 0.0 0.0 0.00 0.00 0.00 61 1014.1
20260507033517 8 0.0 0.0 0.00 0.00 0.00 60 1014.2
20260507033017 8 0.0 0.0 0.00 0.00 0.00 60 1014.1
20260507032517 8 0.0 0.0 0.00 0.00 0.00 60 1014.1
20260507032047 8 0.0 0.0 0.00 0.00 0.00 60 1014.3
20260507031517 8 0.0 0.0 0.00 0.00 0.00 59 1014.2
20260507031017 8 0.0 0.0 0.00 0.00 0.00 58 1014.3
20260507030517 8 0.0 0.0 0.00 0.00 0.00 59 1014.3
20260507030017 8 0.0 0.0 0.00 0.00 0.00 59 1014.3
20260507025517 8 0.0 0.0 0.00 0.00 0.00 59 1014.2
20260507025017 8 0.0 4.8 0.00 0.00 0.00 57 1014.3
20260507024517 8 0.0 9.7 0.00 0.00 0.00 59 1014.3
20260507024017 8 0.0 3.2 0.00 0.00 0.00 59 1014.2
20260507023517 8 0.0 0.0 0.00 0.00 0.00 59 1014.3
20260507023017 8 0.0 0.0 0.00 0.00 0.00 58 1014.2
20260507022547 8 0.0 0.0 0.00 0.00 0.00 59 1014.2
20260507022017 8 0.0 0.0 0.00 0.00 0.00 57 1014.2
20260507021517 8 0.0 0.0 0.00 0.00 0.00 57 1014.1
20260507021017 8 0.0 0.0 0.00 0.00 0.00 58 1014.2
20260507020547 8 0.0 0.0 0.00 0.00 0.00 56 1014.2
20260507020017 8 0.0 3.2 0.00 0.00 0.00 56 1014.1
20260507015517 8 0.0 4.8 0.00 0.00 0.00 59 1014.1
20260507015017 8 0.0 3.2 0.00 0.00 0.00 60 1014.1
20260507014517 8 0.0 0.0 0.00 0.00 0.00 57 1014.0
20260507014017 8 0.0 0.0 0.00 0.00 0.00 57 1014.0
20260507013517 8 0.0 0.0 0.00 0.00 0.00 57 1014.0
20260507013017 8 0.0 0.0 0.00 0.00 0.00 57 1014.0
20260507012517 8 0.0 0.0 0.00 0.00 0.00 56 1013.8
20260507012017 9 0.0 0.0 0.00 0.00 0.00 54 1013.7
20260507011517 9 0.0 0.0 0.00 0.00 0.00 53 1013.7
20260507011047 9 0.0 0.0 0.00 0.00 0.00 56 1013.8
20260507010517 9 0.0 0.0 0.00 0.00 0.00 52 1013.7
20260507010017 9 0.0 0.0 0.00 0.00 0.00 53 1013.8
20260507005517 10 0.0 0.0 0.00 0.00 0.00 53 1013.6
20260507005017 10 0.0 0.0 0.00 0.00 0.00 51 1013.6
20260507004517 10 0.0 0.0 0.00 0.00 0.00 53 1013.6
20260507004017 10 0.0 3.2 0.00 0.00 0.00 52 1013.7
20260507003547 10 0.0 3.2 0.00 0.00 0.00 50 1013.7
20260507003017 10 0.0 3.2 0.00 0.00 0.00 51 1013.6
20260507002517 10 0.0 3.2 0.00 0.00 0.00 49 1013.7
20260507002117 10 0.0 0.0 0.00 0.00 0.00 49 1013.5
20260507001517 10 0.0 3.2 0.00 0.00 0.00 48 1013.5
20260507001017 10 0.0 3.2 0.00 0.00 0.00 47 1013.5
20260507000516 11 315 3.2 8.0 0.00 0.00 0.00 45 1013.5
20260507000017 11 0.0 8.0 0.00 0.00 0.00 46 1013.4
20260506235517 11 0.0 4.8 0.00 0.00 0.00 46 1013.5
20260506235017 11 0.0 3.2 0.00 0.00 0.00 47 1013.4
20260506234517 11 0.0 3.2 0.00 0.00 0.00 46 1013.4
20260506234117 11 0.0 3.2 0.00 0.00 0.00 46 1013.4
20260506233517 11 0.0 4.8 0.00 0.00 0.00 47 1013.5
20260506233017 11 293 3.2 12.9 0.00 0.00 0.00 44 1013.5
20260506232517 11 0.0 4.8 0.00 0.00 0.00 45 1013.4
20260506232017 11 0.0 8.0 0.00 0.00 0.00 45 1013.5
20260506231517 11 293 3.2 12.9 0.00 0.00 0.00 44 1013.4
20260506231016 11 0.0 3.2 0.00 0.00 0.00 44 1013.4
20260506230517 11 0.0 9.7 0.00 0.00 0.00 44 1013.4
20260506230017 11 315 3.2 12.9 0.00 0.00 0.00 43 1013.3
20260506225516 11 293 3.2 17.7 0.00 0.00 0.00 44 1013.2
20260506225047 11 293 3.2 8.0 0.00 0.00 0.00 45 1013.3
20260506224516 11 0.0 3.2 0.00 0.00 0.00 46 1013.3
20260506224016 11 293 3.2 8.0 0.00 0.00 0.00 44 1013.2
20260506223517 11 270 3.2 12.9 0.00 0.00 0.00 43 1013.3
20260506223017 11 0.0 9.7 0.00 0.00 0.00 44 1013.3
20260506222516 11 0.0 3.2 0.00 0.00 0.00 46 1013.2
20260506222016 12 0.0 4.8 0.00 0.00 0.00 43 1013.3
20260506221516 12 248 3.2 16.1 0.00 0.00 0.00 43 1013.3
20260506221017 12 293 3.2 16.1 0.00 0.00 0.00 41 1013.4
20260506220517 12 0.0 8.0 0.00 0.00 0.00 43 1013.2
20260506220017 12 270 3.2 16.1 0.00 0.00 0.00 44 1013.3
20260506215516 12 248 3.2 8.0 0.00 0.00 0.00 44 1013.3
20260506215016 12 293 3.2 22.5 0.00 0.00 0.00 43 1013.3
20260506214517 12 270 3.2 9.7 0.00 0.00 0.00 44 1013.3
20260506214116 12 0.0 4.8 0.00 0.00 0.00 44 1013.2
20260506213517 12 248 3.2 8.0 0.00 0.00 0.00 44 1013.2
20260506213017 12 0.0 8.0 0.00 0.00 0.00 46 1013.2
20260506212516 12 0.0 8.0 0.00 0.00 0.00 46 1013.2
20260506212016 12 248 3.2 9.7 0.00 0.00 0.00 44 1013.2
20260506211516 12 293 3.2 9.7 0.00 0.00 0.00 45 1013.2
20260506211016 12 248 3.2 8.0 0.00 0.00 0.00 44 1013.2
20260506210516 12 248 3.2 9.7 0.00 0.00 0.00 44 1013.2
20260506210016 12 0.0 8.0 0.00 0.00 0.00 46 1013.2
20260506205517 12 270 3.2 12.9 0.00 0.00 0.00 43 1013.2
20260506205016 12 270 3.2 12.9 0.00 0.00 0.00 44 1013.1
20260506204547 12 0.0 8.0 0.00 0.00 0.00 44 1013.3
20260506204016 12 248 3.2 12.9 0.00 0.00 0.00 44 1013.3
20260506203517 12 0.0 8.0 0.00 0.00 0.00 46 1013.3
20260506203016 12 0.0 8.0 0.00 0.00 0.00 46 1013.4
20260506202516 12 0.0 4.8 0.00 0.00 0.00 46 1013.4
20260506202016 12 0.0 4.8 0.00 0.00 0.00 46 1013.4
20260506201516 12 248 3.2 8.0 0.00 0.00 0.00 45 1013.4
20260506201016 12 293 6.4 9.7 0.00 0.00 0.00 43 1013.5
20260506200517 12 293 3.2 9.7 0.00 0.00 0.00 45 1013.5
20260506200016 12 315 3.2 8.0 0.00 0.00 0.00 46 1013.5
20260506195546 12 0.0 4.8 0.00 0.00 0.00 48 1013.5
20260506195016 12 0.0 3.2 0.00 0.00 0.00 47 1013.3
20260506194516 12 0.0 8.0 0.00 0.00 0.00 47 1013.4
20260506194016 12 315 3.2 8.0 0.00 0.00 0.00 47 1013.7
20260506193516 11 0.0 3.2 0.00 0.00 0.00 49 1013.6
20260506193016 11 0.0 3.2 0.00 0.00 0.00 48 1013.6
20260506192516 11 0.0 8.0 0.00 0.00 0.00 48 1013.8
20260506192016 11 68 3.2 12.9 0.00 0.00 0.00 49 1013.7
20260506191516 11 0.0 8.0 0.00 0.00 0.00 48 1013.6
20260506191016 11 0.0 4.8 0.00 0.00 0.00 49 1013.7
20260506190516 11 270 3.2 9.7 0.00 0.00 0.00 49 1013.7
20260506190016 11 0.0 4.8 0.00 0.00 0.00 47 1013.7
20260506185546 11 0.0 9.7 0.00 0.00 0.00 47 1013.7
20260506185016 11 293 3.2 9.7 0.00 0.00 0.00 48 1013.8
20260506184516 12 0 3.2 16.1 0.00 0.00 0.00 47 1013.7
20260506184016 12 270 3.2 12.9 0.00 0.00 0.00 46 1013.6
20260506183516 12 248 3.2 12.9 0.00 0.00 0.00 45 1013.7
20260506183046 12 0.0 9.7 0.00 0.00 0.00 47 1013.6
20260506182516 12 0.0 9.7 0.00 0.00 0.00 48 1013.6
20260506182016 12 270 3.2 12.9 0.00 0.00 0.00 49 1013.6
20260506181516 11 68 3.2 8.0 0.00 0.00 0.00 49 1013.5
20260506181017 11 0.0 4.8 0.00 0.00 0.00 48 1013.7
20260506180516 11 293 3.2 12.9 0.00 0.00 0.00 48 1013.6
20260506180016 11 338 3.2 9.7 0.00 0.00 0.00 48 1013.7
20260506175516 11 68 3.2 9.7 0.00 0.00 0.00 47 1013.8
20260506175016 11 0.0 4.8 0.00 0.00 0.00 48 1013.8
20260506174516 11 315 3.2 8.0 0.00 0.00 0.00 49 1014.0
20260506174016 11 293 3.2 17.7 0.00 0.00 0.00 49 1014.2
20260506173516 11 270 3.2 4.8 0.00 0.00 0.00 48 1014.0
20260506173146 11 293 6.4 12.9 0.00 0.00 0.00 46 1014.2
20260506172516 11 0 3.2 12.9 0.00 0.00 0.00 45 1014.3
20260506172016 12 0.0 3.2 0.00 0.00 0.00 46 1014.3
20260506171516 12 338 3.2 8.0 0.00 0.00 0.00 47 1014.3
20260506171017 11 293 3.2 9.7 0.00 0.00 0.00 47 1014.3
20260506170516 11 315 3.2 12.9 0.00 0.00 0.00 45 1014.3
20260506170016 11 270 3.2 4.8 0.00 0.00 0.00 48 1014.3
20260506165516 11 270 3.2 8.0 0.00 0.00 0.00 46 1014.2
20260506165016 11 315 3.2 9.7 0.00 0.00 0.00 46 1014.3
20260506164516 11 270 3.2 9.7 0.00 0.00 0.00 45 1014.1
20260506164016 11 293 3.2 12.9 0.00 0.00 0.00 47 1014.1
20260506163516 11 68 3.2 8.0 0.00 0.00 0.00 47 1014.3
20260506163046 11 293 3.2 9.7 0.00 0.00 0.00 46 1014.2
20260506162516 11 293 3.2 12.9 0.00 0.00 0.00 46 1014.2
20260506162016 11 68 3.2 16.1 0.00 0.00 0.00 48 1014.2
20260506161516 11 0.0 8.0 0.00 0.00 0.00 47 1014.1
20260506161016 11 293 3.2 12.9 0.00 0.00 0.00 46 1014.2
20260506160516 11 0 3.2 12.9 0.00 0.00 0.00 48 1014.2
20260506160016 10 315 3.2 9.7 0.00 0.00 0.00 48 1014.4
20260506155516 10 270 3.2 8.0 0.00 0.00 0.00 54 1014.3
20260506155016 10 0.0 4.8 0.00 0.00 0.00 55 1014.4
20260506154516 10 248 3.2 9.7 0.00 0.00 0.00 54 1014.5
20260506154016 10 315 3.2 9.7 0.00 0.00 0.00 57 1014.4
20260506153516 10 315 3.2 12.9 0.00 0.00 0.00 54 1014.3
20260506153046 10 270 3.2 9.7 0.00 0.00 0.00 56 1014.3
20260506152516 10 113 3.2 8.0 0.00 0.00 0.00 58 1014.2
20260506152046 10 293 6.4 16.1 0.00 0.00 0.00 57 1014.3
20260506151516 10 293 3.2 16.1 0.00 0.00 0.00 57 1014.2
20260506151016 10 68 3.2 9.7 0.00 0.00 0.00 60 1014.2
20260506150516 10 68 3.2 12.9 0.00 0.00 0.00 59 1014.0
20260506150116 10 338 3.2 9.7 0.00 0.00 0.00 59 1013.9
20260506145516 10 0.0 4.8 0.00 0.08 0.00 63 1013.9
20260506145046 10 0.0 4.8 0.00 0.08 0.00 63 1014.0
20260506144515 9 68 3.2 9.7 0.00 0.08 0.00 63 1013.9
20260506144016 10 0.0 4.8 0.00 0.08 0.00 64 1013.9
20260506143516 10 315 3.2 8.0 0.00 0.08 0.00 62 1013.7
20260506143116 9 0.0 8.0 0.00 0.08 0.00 63 1013.8
20260506142516 9 68 3.2 16.1 0.00 0.08 0.00 64 1013.7
20260506142016 9 0.0 4.8 0.00 0.08 0.00 65 1013.6
20260506141515 8 0.0 4.8 0.00 0.08 0.00 65 1013.6
20260506141016 8 0.0 4.8 0.00 0.08 0.00 65 1013.6
20260506140546 8 68 3.2 9.7 0.00 0.08 0.00 66 1013.5
20260506140016 8 270 3.2 9.7 0.00 0.08 0.00 65 1013.5
20260506135546 8 270 3.2 9.7 0.00 0.08 0.00 64 1013.5
20260506135016 8 0.0 3.2 0.00 0.08 0.00 66 1013.4
20260506134516 8 0.0 4.8 0.00 0.08 0.00 66 1013.4
20260506134116 7 68 3.2 9.7 0.00 0.08 0.00 66 1013.2
20260506133516 7 90 3.2 9.7 0.00 0.08 0.00 69 1013.3
20260506133016 7 68 3.2 12.9 0.00 0.08 0.00 66 1013.3
20260506132516 7 293 3.2 8.0 0.00 0.08 0.00 68 1013.2
20260506132046 7 0.0 3.2 0.00 0.08 0.00 69 1013.2
20260506131515 7 0.0 3.2 0.00 0.08 0.00 69 1013.1
20260506131015 7 90 3.2 8.0 0.00 0.08 0.00 68 1013.1
20260506130516 7 0.0 3.2 0.00 0.08 0.00 69 1013.1
20260506130016 7 68 3.2 4.8 0.00 0.08 0.00 69 1013.0
20260506125515 7 270 3.2 8.0 0.00 0.08 0.00 68 1013.0
20260506125016 6 0.0 4.8 0.00 0.08 0.00 68 1013.0
20260506124546 6 293 3.2 9.7 0.00 0.08 0.00 69 1012.9
20260506124015 6 0.0 4.8 0.00 0.08 0.00 69 1012.9
20260506123516 6 0.0 8.0 0.00 0.08 0.00 68 1012.7
20260506123016 6 270 3.2 9.7 0.00 0.08 0.00 67 1012.8
20260506122516 6 270 3.2 9.7 0.00 0.08 0.00 67 1012.6
20260506122016 6 0.0 4.8 0.00 0.08 0.00 68 1012.5
20260506121515 6 0.0 4.8 0.00 0.08 0.00 67 1012.5
20260506121045 6 0.0 9.7 0.00 0.08 0.00 67 1012.6
20260506120515 5 0.0 4.8 0.00 0.08 0.00 68 1012.4
20260506120015 5 0.0 4.8 0.00 0.08 0.00 67 1012.3
20260506115515 5 0.0 4.8 0.00 0.08 0.00 68 1012.2
20260506115016 5 0.0 4.8 0.00 0.08 0.00 68 1012.1
20260506114515 5 0.0 8.0 0.00 0.08 0.00 68 1011.9
20260506114016 5 0.0 3.2 0.00 0.08 0.00 67 1011.9
20260506113515 5 0.0 8.0 0.00 0.08 0.00 68 1011.7
20260506113046 5 0.0 4.8 0.00 0.08 0.00 69 1011.7
20260506112515 5 0.0 3.2 0.00 0.08 0.00 69 1011.8
20260506112015 5 0.0 3.2 0.00 0.08 0.00 70 1011.8
20260506111515 5 0.0 4.8 0.00 0.08 0.00 70 1011.6
20260506111015 5 0.0 9.7 0.00 0.08 0.00 70 1011.6
20260506110515 4 0.0 3.2 0.00 0.08 0.00 71 1011.5
20260506110015 4 0.0 3.2 0.00 0.08 0.00 72 1011.5
20260506105515 4 0.0 3.2 0.00 0.08 0.00 73 1011.6
20260506105015 4 0.0 0.0 0.00 0.08 0.00 73 1011.7
20260506104516 4 0.0 0.0 0.00 0.08 0.00 73 1011.5
20260506104015 4 0.0 3.2 0.00 0.08 0.00 72 1011.5
20260506103515 3 0.0 3.2 0.00 0.08 0.00 72 1011.4
20260506103015 3 0.0 0.0 0.00 0.08 0.00 73 1011.5
20260506102515 4 0.0 0.0 0.00 0.08 0.00 73 1011.4
20260506102015 4 0.0 0.0 0.00 0.08 0.00 72 1011.2
20260506101616 4 0.0 0.0 0.00 0.08 0.00 72 1011.4
20260506101015 5 0.0 0.0 0.00 0.08 0.00 71 1011.4
20260506100515 5 0.0 0.0 0.00 0.08 0.00 70 1011.2
20260506100015 5 0.0 3.2 0.00 0.08 0.00 69 1010.9
20260506095515 5 0.0 3.2 0.00 0.08 0.00 71 1010.7
20260506095047 5 0.0 0.0 0.00 0.08 0.00 71 1010.8
20260506094648 5 0.0 0.0 0.00 0.08 0.00 71 1010.6
20260506094017 6 0.0 0.0 0.00 0.08 0.00 69 1010.6
20260506093517 6 0.0 0.0 0.00 0.08 0.00 68 1010.6
20260506093047 6 0.0 3.2 0.00 0.08 0.00 66 1010.6
20260506092517 6 0.0 3.2 0.00 0.08 0.00 65 1010.3
20260506092017 6 0.0 8.0 0.00 0.08 0.00 66 1010.4
20260506091547 6 0.0 0.0 0.00 0.08 0.00 66 1010.3
20260506091015 6 0.0 0.0 0.00 0.08 0.00 67 1010.2
20260506090718 6 0.0 3.2 0.00 0.08 0.00 64 1010.5
20260506090047 6 0.0 3.2 0.00 0.08 0.00 63 1010.4
20260506085547 6 0.0 3.2 0.00 0.08 0.00 63 1010.4
20260506085017 6 0.0 4.8 0.00 0.08 0.00 63 1010.3
20260506084547 6 0.0 4.8 0.00 0.08 0.00 62 1010.3
20260506084017 6 0.0 3.2 0.00 0.08 0.00 63 1010.3
20260506083517 7 0.0 3.2 0.00 0.08 0.00 62 1010.4
20260506083017 7 0.0 3.2 0.00 0.08 0.00 63 1010.4
20260506082517 7 0.0 4.8 0.00 0.08 0.00 63 1010.2
20260506082017 7 0.0 8.0 0.00 0.08 0.00 62 1010.4
20260506081517 7 0.0 3.2 0.00 0.08 0.00 63 1010.4
20260506081017 7 0.0 4.8 0.00 0.08 0.00 63 1010.4
20260506080517 7 0.0 4.8 0.00 0.08 0.00 62 1010.5
20260506073517 7 0.0 3.2 0.00 0.08 0.00 62 1010.5
20260506073017 7 0.0 9.7 0.00 0.08 0.00 62 1010.7
20260506072517 7 0.0 4.8 0.00 0.08 0.00 61 1010.6
20260506072017 7 0.0 3.2 0.00 0.08 0.00 61 1010.4
20260506071517 7 0.0 3.2 0.00 0.08 0.00 61 1010.6
20260506071017 7 0.0 4.8 0.00 0.08 0.00 61 1010.5
20260506070517 7 0.0 4.8 0.00 0.08 0.00 61 1010.4
20260506062017 8 0.0 3.2 0.00 0.08 0.00 59 1010.4
20260506061517 8 0.0 3.2 0.00 0.08 0.00 60 1010.5
20260506061017 8 270 3.2 9.7 0.00 0.08 0.00 59 1010.4
20260506060517 8 0.0 3.2 0.00 0.08 0.00 59 1010.5